Location: Oshawa
(43.9000°N, 78.8670°W)
Time: 11:28:59
(UTC-05:00)

Explorer 7 - Visible Passes

Search period start: 20 December 2014 00:00
Search period end: 30 December 2014 00:00
Orbit: 490 x 701 km, 50.3° (Epoch: 20 December)

Date Brightness Start Highest point End Pass type
(mag) Time Alt. Az. Time Alt. Az. Time Alt. Az.
20 Dec 9.8 04:56:54 10° S 04:59:55 17° SE 05:02:52 10° E visible
20 Dec 7.3 06:35:35 10° SW 06:40:19 74° SSE 06:44:45 10° ENE visible
21 Dec 9.0 05:06:55 20° S 05:08:59 28° SE 05:12:53 10° E visible
21 Dec 7.0 06:44:53 10° WSW 06:49:37 76° NNW 06:54:03 10° ENE visible
22 Dec 8.1 05:16:55 36° S 05:18:06 44° SE 05:22:28 10° ENE visible
22 Dec 7.2 06:54:21 10° W 06:58:59 55° NNW 07:03:20 10° ENE visible
23 Dec 7.3 05:26:35 59° SSW 05:27:18 69° SSE 05:31:51 10° ENE visible
23 Dec 7.5 07:03:54 10° W 07:08:24 44° NNW 07:12:37 10° ENE visible
24 Dec 10.2 03:59:24 12° E 03:59:24 12° E 03:59:50 10° E visible
24 Dec 7.0 05:36:01 69° W 05:36:33 82° NNW 05:41:07 10° ENE visible
25 Dec 10.0 04:08:39 14° ENE 04:08:39 14° ENE 04:09:25 10° ENE visible
25 Dec 7.2 05:45:16 54° NW 05:45:51 60° NNW 05:50:21 10° ENE visible
26 Dec 9.8 04:17:46 17° ENE 04:17:46 17° ENE 04:18:47 10° ENE visible
26 Dec 7.5 05:54:22 42° NW 05:55:13 47° NNW 05:59:36 10° ENE visible
27 Dec 9.6 04:26:46 19° ENE 04:26:46 19° ENE 04:28:02 10° ENE visible
27 Dec 7.8 06:03:22 33° NW 06:04:37 40° N 06:08:53 10° ENE visible
28 Dec 9.4 04:35:42 21° NE 04:35:42 21° NE 04:37:13 10° ENE visible
28 Dec 7.9 06:12:18 27° NW 06:14:02 37° N 06:18:13 10° ENE visible
29 Dec 9.2 04:44:34 23° NE 04:44:34 23° NE 04:46:25 10° ENE visible
29 Dec 7.9 06:21:09 23° NW 06:23:27 37° N 06:27:37 10° ENE visible
